Overview Statistics Trail Chart Weather Telemetry Raw packets
 

This is the latest recevied weather packets stored in our database for station/object K6POO-1. If no packets are shown the sender has not sent any weather packets the latest 10 day(s).

<< 100 101 102 103 104 105 106 >>
Time Temp. Humidity Pressure Rain* Wind** Luminosity Snow
1787938909 16.67° C 87% 1016.5 hPa 0 mm - 396 W/m² -
1787938608 16.11° C 88% 1016.6 hPa 0 mm - 397 W/m² -
1787938304 15.56° C 89% 1016.7 hPa 0 mm - 308 W/m² -
1787937999 15.56° C 89% 1016.6 hPa 0 mm - 256 W/m² -
1787937694 15.56° C 89% 1016.9 hPa 0 mm - 210 W/m² -
1787937390 15.56° C 88% 1017 hPa 0 mm - 194 W/m² -
1787937086 15.56° C 88% 1016.8 hPa 0 mm - 180 W/m² -
1787936786 15.56° C 87% 1016.6 hPa 0 mm - 169 W/m² -
1787936481 15.56° C 88% 1016.6 hPa 0 mm - 146 W/m² -
1787936180 15.56° C 88% 1016.5 hPa 0 mm - 126 W/m² -
1787935875 15.56° C 87% 1016.5 hPa 0 mm - 120 W/m² -
1787935571 15.56° C 87% 1016.7 hPa 0 mm - 98 W/m² -
1787935268 15.56° C 88% 1016.2 hPa 0 mm - 127 W/m² -
1787934962 15.56° C 88% 1016.3 hPa 0 mm - 134 W/m² -
1787934657 15.56° C 87% 1016.4 hPa 0 mm - 125 W/m² -
1787934357 15.56° C 87% 1016.3 hPa 0 mm - 115 W/m² -
1787934056 15.56° C 86% 1016.4 hPa 0 mm - 119 W/m² -
1787933755 16.11° C 84% 1016.4 hPa 0 mm - 121 W/m² -
1787933451 16.11° C 83% 1016.3 hPa 0 mm - 142 W/m² -
1787933144 16.67° C 80% 1016.1 hPa 0 mm - 162 W/m² -
1787932839 16.67° C 80% 1016.1 hPa 0 mm - 177 W/m² -
1787932532 17.22° C 80% 1016 hPa 0 mm - 182 W/m² -
1787932227 17.22° C 79% 1015.7 hPa 0 mm - 136 W/m² -
1787931927 16.67° C 80% 1015.7 hPa 0 mm - 123 W/m² -
1787931621 16.67° C 81% 1015.6 hPa 0 mm - 126 W/m² -

* Rain latest hour (hover to see other rain measurements)
** Current wind speed in m/s (hover to see current wind gust speed)